Weather in Kulhudhuffushi

Maldives     6°37′25″N   73°04′19″E
temp.,
°C
wind,
m/s
gust,
m/s
humid.,
%
clouds,
%
prec.,
mm/h
press.,
hPa
HPBL,
m
6 may, thu
thu623:00+30ese1166100 0.0 1009683
02:00+29s22706 0.0 1007802
05:00+28s227598 1.6 1008103
08:00+29s2272100 1.1 1011532
11:00+29ssw2271100 1.1 1011725
14:00+29sw2269100 0.0 1008693
17:00+29ssw1168100 0.0 1008718
20:00+29s1168100 0.0 1009608
7 may, fri
fri723:00+29ssw1269100 0.0 1010593
02:00+29sw2269100 0.0 1008646
05:00+29sw2268100 0.0 1009725
08:00+29wsw1168100 0.0 1011720
11:00+29nw1169100 0.3 1012561
14:00+29wnw1168100 0.0 1009695
17:00+29nw22675 0.0 1008803
20:00+29n1166100 0.0 1010722
8 may, sat
sat823:00+29n2267100 0.0 1010733
02:00+29nw116742 0.0 1008662
05:00+29n0168100 0.0 1009662
08:00+29ne116899 0.0 1011664
11:00+29nne22685 0.0 1010711
14:00+29n22675 0.0 1008828
17:00+30n22665 0.0 1007866
20:00+29n01665 0.0 1009721
9 may, sun
sun923:00+29ese00675 0.0 1010699
02:00+29sse116999 0.0 1007681
05:00+29sse116939 0.0 1008623
08:00+29sse2270100 0.0 1010724
11:00+29s117096 0.0 1010672
14:00+29ssw11686 0.0 1008800
17:00+29ssw226879 0.0 1008894
20:00+29ssw22685 0.0 1009870
10 may, mon
mon1023:00+29ssw22685 0.0 1010859
02:00+29wsw336999 0.0 1008874
05:00+29sw3369100 0.0 1008860
08:00+29wsw226863 0.0 1011784
11:00+29wsw226763 0.0 1011728
14:00+29wsw336664 0.0 1008869
17:00+30w336561 0.0 10081004
20:00+30w336728 0.0 1010938